EW9362 Weather Reports


Display with metric or nautical units.
time (UTC)temp
F
wind
direction
speed
MPH
gust
MPH
rain 1hr
in
rain 24hr
in
rain mn
in
humidity
%
barometer
mb
20260504081546 55 222 2.0 9.0 0.00 0.00 0.00 67 1011.0
20260504081029 55 165 4.0 9.0 0.00 0.00 0.00 68 1011.0
20260504080529 55 174 3.0 6.0 0.00 0.00 0.00 68 1011.0
20260504050530 55 240 2.0 8.0 0.00 0.00 0.00 59 1013.3
20260504045527 55 200 2.0 7.0 0.00 0.00 0.00 60 1013.3
20260504045029 55 186 3.0 6.0 0.00 0.00 0.00 60 1013.3
20260504044552 55 189 2.0 6.0 0.00 0.00 0.00 60 1013.3
20260504044031 55 160 3.0 6.0 0.00 0.00 0.00 60 1013.4
20260504043527 55 186 2.0 7.0 0.00 0.00 0.00 60 1013.4
20260504043046 55 0 2.0 7.0 0.00 0.00 0.00 60 1013.5
20260504042527 54 184 2.0 7.0 0.00 0.00 0.00 60 1013.4
20260504042027 55 169 3.0 5.0 0.00 0.00 0.00 60 1013.5
20260504041546 55 191 1.0 6.0 0.00 0.00 0.00 60 1013.4
20260504041027 55 188 2.0 6.0 0.00 0.00 0.00 59 1013.4
20260504040527 55 162 2.0 5.0 0.00 0.00 0.00 59 1013.4
20260504035527 55 193 2.0 7.0 0.00 0.00 0.00 58 1013.5
20260504035027 55 198 2.0 7.0 0.00 0.00 0.00 58 1013.6
20260504034555 55 203 3.0 6.0 0.00 0.00 0.00 58 1013.6
20260504034027 55 232 3.0 6.0 0.00 0.00 0.00 58 1013.6
20260504033527 55 169 2.0 6.0 0.00 0.00 0.00 58 1013.8
20260504033114 55 169 1.0 7.0 0.00 0.00 0.00 58 1013.8
20260504032528 55 175 2.0 7.0 0.00 0.00 0.00 57 1014.0
20260504032029 55 160 3.0 7.0 0.00 0.00 0.00 57 1014.1
20260504031546 55 153 2.0 7.0 0.00 0.00 0.00 58 1014.0
20260504031030 55 186 2.0 6.0 0.00 0.00 0.00 58 1014.1
20260504030527 55 231 2.0 4.0 0.00 0.00 0.00 58 1014.2
20260504030048 55 148 2.0 4.0 0.00 0.00 0.00 58 1014.2
20260504025531 55 142 2.0 4.0 0.00 0.00 0.00 57 1014.2
20260504025027 55 0 2.0 4.0 0.00 0.00 0.00 57 1014.2
20260504024544 56 181 1.0 5.0 0.00 0.00 0.00 57 1014.3
20260504024027 56 157 2.0 5.0 0.00 0.00 0.00 57 1014.3
20260504023527 56 184 2.0 4.0 0.00 0.00 0.00 57 1014.2
20260504023057 56 167 1.0 3.0 0.00 0.00 0.00 57 1014.4
20260504022527 56 0 1.0 2.0 0.00 0.00 0.00 56 1014.4
20260504022029 55 182 0.0 3.0 0.00 0.00 0.00 57 1014.3
20260504021546 55 0 0.0 3.0 0.00 0.00 0.00 57 1014.5
20260504021028 55 174 0.0 2.0 0.00 0.00 0.00 58 1014.5
20260504020530 55 169 0.0 2.0 0.00 0.00 0.00 58 1014.5
20260504020052 55 0 0.0 2.0 0.00 0.00 0.00 58 1014.5
20260504015528 55 0 0.0 1.0 0.00 0.00 0.00 61 1014.4
20260504015028 55 162 0.0 1.0 0.00 0.00 0.00 59 1014.4
20260504014549 55 0 0.0 0.0 0.00 0.00 0.00 59 1014.5
20260504014027 56 0 0.0 0.0 0.00 0.00 0.00 59 1014.4
20260504013529 56 0 0.0 0.0 0.00 0.00 0.00 58 1014.4
20260504013047 56 0 0.0 0.0 0.00 0.00 0.00 57 1014.4
20260504012527 57 0 0.0 0.0 0.00 0.00 0.00 55 1014.4
20260504012027 57 0 0.0 0.0 0.00 0.00 0.00 57 1014.3
20260504011540 57 0 0.0 1.0 0.00 0.00 0.00 53 1014.3
20260504011027 58 0 0.0 2.0 0.00 0.00 0.00 52 1014.2
20260504010527 58 157 0.0 2.0 0.00 0.00 0.00 51 1013.8
20260504010047 58 184 0.0 2.0 0.00 0.00 0.00 51 1013.7
20260504005528 59 0 0.0 2.0 0.00 0.00 0.00 50 1013.9
20260504005027 59 0 0.0 3.0 0.00 0.00 0.00 50 1013.8
20260504004600 59 0 0.0 3.0 0.00 0.00 0.00 49 1013.7
20260504004026 60 0 0.0 4.0 0.00 0.00 0.00 48 1013.9
20260504003527 60 0 1.0 4.0 0.00 0.00 0.00 48 1013.6
20260504003045 60 179 1.0 4.0 0.00 0.00 0.00 47 1013.6
20260504002527 61 195 0.0 6.0 0.00 0.00 0.00 46 1013.5
20260504002027 61 195 1.0 6.0 0.00 0.00 0.00 46 1013.5
20260504001544 62 0 0.0 4.0 0.00 0.00 0.00 45 1013.6
20260504001027 62 0 0.0 4.0 0.00 0.00 0.00 44 1013.5
20260504000527 62 0 0.0 6.0 0.00 0.00 0.00 44 1013.3
20260504000046 63 0 1.0 6.0 0.00 0.00 0.00 43 1013.3
20260503235529 63 184 1.0 6.0 0.00 0.00 0.00 43 1013.4
20260503235027 64 0 0.0 7.0 0.00 0.00 0.00 42 1013.4
20260503234542 64 217 0.0 7.0 0.00 0.00 0.00 41 1013.4
20260503234029 64 241 3.0 9.0 0.00 0.00 0.00 42 1013.4
20260503233529 64 0 2.0 12.0 0.00 0.00 0.00 42 1013.4
20260503233047 64 0 2.0 12.0 0.00 0.00 0.00 41 1013.4
20260503232527 65 146 2.0 7.0 0.00 0.00 0.00 41 1013.5
20260503232027 65 0 1.0 11.0 0.00 0.00 0.00 40 1013.5
20260503231549 64 253 2.0 12.0 0.00 0.00 0.00 40 1013.6
20260503231028 64 166 1.0 12.0 0.00 0.00 0.00 40 1013.6
20260503230528 64 221 3.0 12.0 0.00 0.00 0.00 39 1013.8
20260503230052 64 243 2.0 9.0 0.00 0.00 0.00 38 1013.8
20260503225527 64 246 2.0 8.0 0.00 0.00 0.00 39 1014.0
20260503225027 64 222 1.0 6.0 0.00 0.00 0.00 39 1014.1
20260503224541 64 0 0.0 10.0 0.00 0.00 0.00 40 1014.3
20260503224027 64 94 0.0 10.0 0.00 0.00 0.00 39 1014.3
20260503223530 64 131 3.0 10.0 0.00 0.00 0.00 39 1014.4
20260503223043 65 0 0.0 10.0 0.00 0.00 0.00 39 1014.5
20260503222527 65 186 1.0 10.0 0.00 0.00 0.00 38 1014.7
20260503222029 65 239 3.0 13.0 0.00 0.00 0.00 35 1014.8
20260503221551 66 233 3.0 13.0 0.00 0.00 0.00 36 1014.6
20260503221027 66 9 1.0 13.0 0.00 0.00 0.00 36 1014.4
20260503220531 66 0 1.0 6.0 0.00 0.00 0.00 36 1014.4
20260503220047 66 187 1.0 7.0 0.00 0.00 0.00 36 1014.8
20260503215532 65 147 2.0 8.0 0.00 0.00 0.00 34 1015.0
20260503215031 66 312 0.0 10.0 0.00 0.00 0.00 35 1015.1
20260503214544 66 88 2.0 10.0 0.00 0.00 0.00 35 1015.0
20260503214033 65 0 3.0 10.0 0.00 0.00 0.00 35 1015.2
20260503213531 66 75 2.0 10.0 0.00 0.00 0.00 37 1015.4
20260503213059 66 0 2.0 12.0 0.00 0.00 0.00 36 1015.5
20260503212530 66 56 1.0 12.0 0.00 0.00 0.00 36 1015.6
20260503212032 66 133 1.0 7.0 0.00 0.00 0.00 35 1015.5
20260503211542 65 323 1.0 9.0 0.00 0.00 0.00 34 1015.4
20260503211031 65 143 1.0 9.0 0.00 0.00 0.00 36 1015.4
20260503210533 64 0 4.0 17.0 0.00 0.00 0.00 34 1015.2
20260503210055 65 71 3.0 17.0 0.00 0.00 0.00 35 1015.5
20260503205529 64 152 6.0 17.0 0.00 0.00 0.00 35 1015.6
20260503205029 65 221 1.0 8.0 0.00 0.00 0.00 37 1015.8
20260503204552 64 0 1.0 9.0 0.00 0.00 0.00 35 1015.7
20260503204031 64 81 3.0 9.0 0.00 0.00 0.00 36 1015.8
20260503203531 66 285 2.0 9.0 0.00 0.00 0.00 34 1015.8
20260503203043 65 194 1.0 9.0 0.00 0.00 0.00 34 1016.0
20260503202532 65 250 2.0 9.0 0.00 0.00 0.00 35 1016.0
20260503202029 65 258 1.0 5.0 0.00 0.00 0.00 34 1016.0
20260503201542 65 157 2.0 9.0 0.00 0.00 0.00 34 1016.2
20260503201031 65 0 2.0 9.0 0.00 0.00 0.00 35 1016.3
20260503200529 65 150 1.0 8.0 0.00 0.00 0.00 34 1016.2
20260503200044 64 314 2.0 8.0 0.00 0.00 0.00 33 1016.4
20260503195529 64 0 1.0 8.0 0.00 0.00 0.00 36 1016.6
20260503195031 64 127 2.0 6.0 0.00 0.00 0.00 34 1016.8
20260503194547 65 264 0.0 7.0 0.00 0.00 0.00 34 1017.0
20260503194029 64 46 2.0 8.0 0.00 0.00 0.00 35 1017.1
20260503193529 64 231 2.0 8.0 0.00 0.00 0.00 32 1017.3
20260503193053 64 36 2.0 11.0 0.00 0.00 0.00 36 1017.5
20260503192531 64 276 2.0 11.0 0.00 0.00 0.00 34 1017.7
20260503192031 63 145 5.0 11.0 0.00 0.00 0.00 34 1017.6
20260503191544 63 134 5.0 11.0 0.00 0.00 0.00 34 1017.7
20260503191028 63 108 2.0 7.0 0.00 0.00 0.00 33 1017.7
20260503190532 64 131 1.0 7.0 0.00 0.00 0.00 33 1017.7
20260503190043 64 207 1.0 15.0 0.00 0.00 0.00 37 1017.9
20260503185531 64 248 1.0 15.0 0.00 0.00 0.00 34 1018.1
20260503185028 64 212 1.0 6.0 0.00 0.00 0.00 33 1018.1
20260503184552 63 48 2.0 7.0 0.00 0.00 0.00 36 1018.1
20260503184031 63 176 2.0 8.0 0.00 0.00 0.00 34 1018.3
20260503183532 62 50 2.0 9.0 0.00 0.00 0.00 36 1018.3
20260503183102 62 181 5.0 9.0 0.00 0.00 0.00 33 1018.4
20260503182528 63 191 1.0 12.0 0.00 0.00 0.00 33 1018.4
20260503182030 62 143 3.0 12.0 0.00 0.00 0.00 37 1018.4
20260503181547 63 148 1.0 5.0 0.00 0.00 0.00 34 1018.5
20260503181029 63 210 2.0 7.0 0.00 0.00 0.00 35 1018.6
20260503180529 62 179 1.0 8.0 0.00 0.00 0.00 34 1018.6
20260503180047 62 294 3.0 12.0 0.00 0.00 0.00 36 1018.7
20260503175532 62 151 3.0 12.0 0.00 0.00 0.00 36 1018.6
20260503175031 62 191 0.0 15.0 0.00 0.00 0.00 36 1018.8
20260503174544 61 272 7.0 15.0 0.00 0.00 0.00 36 1018.7
20260503174032 62 155 0.0 13.0 0.00 0.00 0.00 37 1018.7
20260503173532 61 188 5.0 13.0 0.00 0.00 0.00 37 1018.9
20260503173112 61 224 4.0 11.0 0.00 0.00 0.00 35 1019.1
20260503172535 62 225 3.0 7.0 0.00 0.00 0.00 33 1019.2
20260503172031 61 203 1.0 13.0 0.00 0.00 0.00 36 1019.3
20260503171549 60 161 1.0 13.0 0.00 0.00 0.00 37 1019.5
20260503171029 60 58 6.0 13.0 0.00 0.00 0.00 36 1019.6
20260503170529 60 101 2.0 12.0 0.00 0.00 0.00 35 1019.6
20260503150529 56 212 4.0 9.0 0.00 0.00 0.00 45 1020.8
20260503131028 50 146 1.0 7.0 0.00 0.00 0.00 59 1020.9
20260503130528 49 162 2.0 7.0 0.00 0.00 0.00 60 1020.7
20260503110528 39 196 1.0 4.0 0.00 0.00 0.00 79 1019.9